Location: La Tine
(46.4708°N, 7.0525°E)
Time: 10:37:45
(UTC+00:00)

Cosmos 1833 Rocket - Visible Passes

Search period start: 17 January 2021 00:00
Search period end: 27 January 2021 00:00
Orbit: 834 x 838 km, 71.0° (Epoch: 16 January)

Date Brightness Start Highest point End Pass type
(mag) Time Alt. Az. Time Alt. Az. Time Alt. Az.
17 Jan 4.5 18:40:44 10° N 18:42:29 17° N 18:42:29 17° N visible
17 Jan 5.4 20:24:02 10° NNW 20:24:12 11° NNW 20:24:12 11° NNW visible
18 Jan 4.3 18:24:04 10° N 18:26:29 18° NNE 18:26:29 18° NNE visible
18 Jan 5.1 20:07:17 10° NNW 20:08:12 15° NNW 20:08:12 15° NNW visible
19 Jan 4.2 18:07:24 10° N 18:10:32 19° NNE 18:10:32 19° NNE visible
19 Jan 4.7 19:50:33 10° NNW 19:52:15 21° NNW 19:52:15 21° NNW visible
20 Jan 4.1 17:50:45 10° N 17:54:41 19° NE 17:54:41 19° NE visible
20 Jan 4.2 19:33:48 10° NNW 19:36:25 29° NNW 19:36:25 29° NNW visible
21 Jan 4.1 17:34:06 10° N 17:37:53 18° NE 17:38:57 17° NE visible
21 Jan 3.5 19:17:04 10° NNW 19:20:41 41° NNW 19:20:41 41° NNW visible
22 Jan 4.2 17:17:28 10° N 17:21:04 17° NE 17:23:21 14° ENE visible
22 Jan 2.8 19:00:20 10° NNW 19:05:06 63° N 19:05:06 63° N visible
22 Jan 5.4 20:45:41 10° WNW 20:46:51 13° WNW 20:46:51 13° WNW visible
23 Jan 4.2 17:00:50 10° N 17:04:15 16° NE 17:07:40 10° ENE visible
23 Jan 2.5 18:43:36 10° NNW 18:49:14 72° ENE 18:49:44 67° E visible
23 Jan 5.1 20:28:46 10° WNW 20:31:30 18° W 20:31:30 18° W visible
24 Jan 2.6 18:26:52 10° NNW 18:32:29 67° ENE 18:34:40 37° SE visible
24 Jan 4.8 20:11:51 10° NW 20:15:51 20° W 20:16:28 20° WSW visible
25 Jan 2.6 18:10:09 10° NNW 18:15:44 62° ENE 18:20:05 17° SE visible
25 Jan 4.8 19:54:58 10° NW 19:59:11 22° W 20:01:56 15° SW visible
26 Jan 2.7 17:53:26 10° NNW 17:58:59 58° ENE 18:04:31 10° SE visible
26 Jan 4.8 19:38:06 10° NW 19:42:30 24° WSW 19:46:51 10° SSW visible
